Weather History for KSET - March, 2014

Change the Weather History Date:

Monday, March 10, 2014

  Actual Average (KSTL) Record (KSTL)
Temperature  
Mean Temperature 56 °F 44 °F  
Max Temperature 77 °F 54 °F 86 °F (1955)
Min Temperature 36 °F 35 °F 8 °F (1934)
Degree Days  
Heating Degree Days 8 21  
Month to date heating degree days 227  
Since 1 July heating degree days 3825  
Cooling Degree Days 0 0  
Month to date cooling degree days 0  
Year to date cooling degree days 0  
Growing Degree Days 6 (Base 50)    
Moisture  
Dew Point 33 °F    
Average Humidity 54    
Maximum Humidity 89    
Minimum Humidity 18    
Precipitation  
Precipitation 0.00 in 0.10 in 1.50 in (1935)
Month to date precipitation 0.91  
Year to date precipitation 5.55  
Snow  
Snow 0.00 in 0.10 in 4.00 in (1948)
Month to date snowfall 1.1  
Since 1 July snowfall 16.1  
Snow Depth -    
Sea Level Pressure  
Sea Level Pressure 29.82 in    
Wind  
Wind Speed 9 mph (WSW)    
Max Wind Speed 20 mph    
Max Gust Speed 22 mph    
Visibility 9 miles    
Events      
T = Trace of Precipitation, MM = Missing Value Source: NWS Daily Summary

Daily Weather History Graph

Daily Weather History Graph

Search for Another Location

Airport or City:

Trip Planner

Search our weather history database for the weather conditions in past years. The results will help you decide how hot, cold, wet, or windy it might be!

Date:

Astronomy

Mar. 10, 2014 Rise Set
Actual Time 7:20 AM CDT 7:03 PM CDT
Civil Twilight 6:54 AM CDT 7:30 PM CDT
Nautical Twilight 6:23 AM CDT 8:01 PM CDT
Astronomical Twilight 5:52 AM CDT 8:32 PM CDT
Moon 1:49 PM CDT (3/10) 3:30 AM CDT (3/10)
Length of Visible Light 12h 36m
Length of Day
11h 43m
Waxing Gibbous, 70% of the Moon is Illuminated
Mar 10
Waxing Gibbous
Mar 16
Full
Mar 23
Last Quarter
Mar 30
New
Apr 7
First Quarter

Hourly Weather History & Observations

Time (CDT) Temp. Windchill Dew Point Humidity Pressure Visibility Wind Dir Wind Speed Gust Speed Precip Events Conditions
12:54 AM 39.0 °F 32.8 °F 30.0 °F 70% 29.99 in 10.0 mi SW 9.2 mph - N/A   Clear
1:54 AM 37.0 °F 33.3 °F 30.0 °F 76% 29.98 in 10.0 mi WSW 4.6 mph - N/A   Clear
2:54 AM 39.0 °F 32.8 °F 30.9 °F 73% 29.96 in 10.0 mi SW 9.2 mph - N/A   Clear
3:54 AM 39.0 °F 34.0 °F 33.1 °F 79% 29.94 in 10.0 mi SW 6.9 mph - N/A   Clear
4:54 AM 36.0 °F 29.6 °F 32.0 °F 86% 29.91 in 9.0 mi SW 8.1 mph - N/A   Clear
5:54 AM 37.0 °F 31.0 °F 33.1 °F 86% 29.90 in 7.0 mi SW 8.1 mph - N/A   Clear
6:54 AM 37.0 °F 31.0 °F 34.0 °F 89% 29.90 in 6.0 mi SW 8.1 mph - N/A   Clear
7:54 AM 36.0 °F 29.0 °F 33.1 °F 89% 29.89 in 4.0 mi SW 9.2 mph - N/A   Clear
8:54 AM 43.0 °F 39.5 °F 37.9 °F 82% 29.89 in 5.0 mi SSW 5.8 mph - N/A   Haze
9:54 AM 53.1 °F - 37.9 °F 57% 29.88 in 10.0 mi WSW 11.5 mph - N/A   Clear
10:54 AM 59.0 °F - 37.0 °F 44% 29.86 in 10.0 mi WSW 15.0 mph - N/A   Clear
11:54 AM 63.0 °F - 35.1 °F 35% 29.83 in 10.0 mi SW 19.6 mph - N/A   Clear
12:54 PM 68.0 °F - 33.1 °F 27% 29.81 in 10.0 mi WSW 15.0 mph - N/A   Clear
1:54 PM 71.1 °F - 32.0 °F 24% 29.76 in 10.0 mi West 16.1 mph 21.9 mph N/A   Clear
2:54 PM 73.9 °F - 30.9 °F 21% 29.73 in 10.0 mi WSW 13.8 mph - N/A   Clear
3:54 PM 75.9 °F - 30.9 °F 19% 29.71 in 10.0 mi WSW 12.7 mph - N/A   Clear
4:54 PM 77.0 °F - 30.0 °F 18% 29.69 in 10.0 mi WSW 13.8 mph - N/A   Unknown
5:54 PM 75.9 °F - 30.0 °F 19% 29.68 in 10.0 mi WSW 9.2 mph - N/A   Clear
6:54 PM 69.1 °F - 32.0 °F 25% 29.69 in 10.0 mi West 5.8 mph - N/A   Clear
7:54 PM 61.0 °F - 32.0 °F 34% 29.70 in 10.0 mi West 4.6 mph - N/A   Clear
8:54 PM 55.0 °F - 33.1 °F 43% 29.71 in 10.0 mi Calm Calm - N/A   Clear
9:54 PM 48.0 °F - 35.1 °F 61% 29.72 in 10.0 mi NNE 5.8 mph - N/A   Clear
10:54 PM 51.1 °F - 36.0 °F 56% 29.73 in 10.0 mi NE 5.8 mph - N/A   Clear
11:54 PM 41.0 °F 39.0 °F 34.0 °F 76% 29.71 in 10.0 mi SE 3.5 mph - N/A   Clear